[[{"header":{"parameterUnit":"m.s-1","parameterCategory":1,"la1":30.2991,"la2":30.254,"lo1":-89.0895,"lo2":-89.0444,"dx":0.0017,"dy":0.0017,"nx":28,"ny":28,"refTime":"2023-01-27T15:00:00:Z","depth":0,"parameterNumber":2,"parameterNumberName":"U-component_of_WINDS"},"data":[0,0,0,0,0,0,0,0,0,0,0,0,0,0,0,0,0,0,0,0,0,0,0,0,0,0,0,0,0,0,0,0,0,0,0,0,0,0,0,0,0,0,0,0,0,0,0,0,0,0,0,0,0,0,0,0,0,0,-1.8393,-1.8393,0,-1.8334,-1.8333,-1.8332,-1.822,-1.8218,-1.8216,-1.8214,-1.8154,-1.8155,-1.8155,0,0,0,0,0,0,0,0,0,0,0,0,0,-1.8414,-1.8415,-1.8394,-1.8393,-1.8392,-1.8334,-1.8333,-1.8332,-1.822,-1.8218,-1.8215,-1.8213,-1.8154,-1.8155,-1.8155,0,0,0,0,0,0,0,0,0,0,0,0,0,-1.8385,-1.8415,-1.8394,-1.8329,-1.8323,-1.8334,-1.8333,-1.8332,-1.8221,-1.8218,-1.8214,-1.8211,-1.8154,-1.8155,-1.8155,-1.8225,0,0,-1.8157,-1.8158,0,0,0,0,0,0,0,0,-1.8387,-1.8385,-1.8339,-1.8334,-1.8327,-1.8281,-1.8318,-1.8296,-1.8222,-1.826,-1.8214,-1.821,-1.8199,-1.8196,-1.8192,-1.8222,-1.822,-1.8157,-1.8158,-1.8158,-1.8158,0,0,0,0,0,0,0,-1.8389,-1.8386,-1.837,-1.8339,-1.8331,-1.8304,-1.8297,-1.8314,-1.8249,-1.8256,-1.8248,-1.8242,-1.8195,-1.8192,-1.819,-1.8219,-1.8157,-1.8158,-1.8158,-1.8159,-1.8306,-1.8309,0,0,0,0,0,0,-1.84,-1.8389,-1.8372,-1.8368,-1.8349,-1.8307,-1.8298,-1.8299,-1.8248,-1.8237,-1.8245,-1.8237,-1.8192,-1.8189,-1.8187,-1.8267,-1.8158,-1.8159,-1.8159,-1.8302,-1.8307,-1.831,0,0,0,0,0,0,-1.8401,-1.84,-1.8374,-1.8376,-1.8371,-1.831,-1.8312,-1.8299,-1.8296,-1.824,-1.8228,-1.8253,-1.8189,-1.8186,-1.8217,-1.8263,-1.8159,-1.816,-1.8298,-1.8304,-1.8309,-1.8426,0,0,0,0,0,0,-1.8402,-1.8401,-1.8425,-1.8378,-1.8371,-1.8404,-1.8315,-1.8301,-1.8297,-1.8286,-1.8244,-1.8234,-1.8186,-1.8216,-1.8218,-1.8262,-1.816,-1.8294,-1.8301,-1.8307,-1.8418,-1.8435,-1.8449,0,0,0,0,0,-1.8403,-1.8461,-1.8427,-1.8426,-1.8401,-1.8407,-1.8403,-1.8347,-1.8301,-1.8326,-1.8291,-1.8235,-1.8258,-1.8221,-1.8221,-1.8266,-1.8291,-1.8299,-1.8306,-1.8411,-1.8431,-1.8449,0,0,0,0,0,0,-1.8515,-1.8453,-1.8415,-1.8459,-1.8439,-1.8388,-1.8417,-1.837,-1.8363,-1.8353,-1.8284,-1.8276,-1.8316,-1.8294,-1.8253,-1.8333,-1.8266,-1.8274,-1.8345,-1.8364,-1.838,-1.8384,-1.8161,0,0,0,0,0,-1.8545,-1.8555,-1.85,-1.8544,-1.8536,-1.8479,-1.8479,-1.8438,-1.8415,-1.8406,-1.8372,-1.8353,-1.8355,-1.8359,-1.8358,-1.8414,-1.8405,-1.8446,-1.8462,-1.8475,-1.8483,-1.8513,-1.8532,-1.8336,-1.8336,-1.8336,0,0,-1.8607,-1.8574,-1.8584,-1.8566,-1.8545,-1.8558,-1.8472,-1.8488,-1.8497,-1.8408,-1.8435,-1.8411,-1.8384,-1.8429,-1.8447,-1.8412,-1.8535,-1.8485,-1.8496,-1.8497,-1.8524,-1.8542,-1.8559,-1.8342,-1.8341,-1.834,0,0,-1.8726,-1.8701,-1.8736,-1.8718,-1.8688,-1.8651,-1.8659,-1.8616,-1.8596,-1.8622,-1.8556,-1.8567,-1.8572,-1.8557,-1.855,-1.8667,-1.8616,-1.8668,-1.875,-1.8781,-1.8796,-1.8809,-1.8852,-1.8868,-1.8677,-1.8677,-1.8677,0,-1.8806,-1.8821,-1.876,-1.8781,-1.8775,-1.8696,-1.8731,-1.8717,-1.869,-1.8688,-1.865,-1.8657,-1.8634,-1.8674,-1.8703,-1.87,-1.8709,-1.8672,-1.8799,-1.8812,-1.8823,-1.8863,-1.8879,-1.8683,-1.8683,-1.8682,-1.8681,0,-1.8922,-1.8934,-1.8965,-1.8941,-1.8939,-1.8968,-1.8912,-1.8918,-1.8878,-1.8845,-1.8874,-1.8844,-1.8837,-1.8843,-1.8804,-1.888,-1.8859,-1.8811,-1.8742,-1.8849,-1.8886,-1.8901,-1.8693,-1.8691,-1.8689,-1.8687,0,0,-1.9107,-1.9051,-1.9063,-1.9052,-1.9016,-1.9024,-1.905,-1.9043,-1.905,-1.9035,-1.9056,-1.9064,-1.902,-1.9012,-1.8971,-1.8998,-1.9094,-1.8946,-1.8944,-1.8975,-1.9178,-1.9215,-1.9233,-1.9061,-1.9063,-1.9066,-1.918,0,-1.9218,-1.9258,-1.9205,-1.9257,-1.9269,-1.9195,-1.9218,-1.9199,-1.917,-1.9176,-1.9144,-1.9151,-1.9092,-1.9087,-1.911,-1.9078,-1.9134,-1.9068,-1.9081,-1.9082,-1.909,-1.9252,-1.929,-1.94,-1.9194,-1.9197,-1.9198,0,-1.9352,-1.9343,-1.9397,-1.9359,-1.9362,-1.9383,-1.9374,-1.9381,-1.9359,-1.9336,-1.9329,-1.928,-1.9304,-1.9239,-1.9273,-1.923,-1.9232,-1.9217,-1.922,-1.9219,-1.9147,-1.9256,-1.9434,-1.9451,-1.922,-1.9218,-1.9217,0,-1.9483,-1.9485,-1.9518,-1.9511,-1.9467,-1.9484,-1.9467,-1.9442,-1.9442,-1.9434,-1.9434,-1.943,-1.9428,-1.9426,-1.9378,-1.9335,-1.9419,-1.9349,-1.9402,-1.9404,-1.9423,-1.9422,-1.9604,-1.9424,-1.9424,-1.9424,-1.9423,0,-1.9612,-1.9648,-1.9576,-1.9597,-1.9636,-1.9576,-1.9616,-1.9592,-1.9571,-1.9586,-1.9523,-1.9539,-1.9474,-1.9484,-1.9447,-1.9482,-1.9481,-1.9464,-1.9454,-1.947,-1.9473,-1.947,-1.9462,-1.9428,-1.9427,-1.9426,-1.9425,0,-1.9764,-1.9718,-1.9749,-1.9706,-1.9696,-1.9727,-1.9691,-1.9709,-1.9676,-1.9697,-1.9699,-1.9648,-1.9657,-1.9609,-1.9609,-1.9584,-1.9638,-1.9614,-1.9645,-1.9638,-1.9694,-1.969,-1.9881,-1.9904,-1.971,-1.9712,-1.9713,0,-1.985,-1.9876,-1.9836,-1.9842,-1.9828,-1.9838,-1.9838,-1.9782,-1.9785,-1.9763,-1.9785,-1.9788,-1.9787,-1.9805,-1.9769,-1.977,-1.9746,-1.9813,-1.9746,-1.9762,-1.9748,-1.9748,-1.9751,-1.9827,-1.983,-1.9832,-1.9833,0,-2.0007,-1.9983,-1.9985,-1.9981,-1.9983,-1.9976,-1.9966,-1.9974,-1.9913,-1.992,-1.9928,-1.9928,-1.9929,-1.9934,-1.9928,-1.9911,-1.9863,-1.9855,-1.9867,-1.9884,-1.9901,-1.9894,-1.9684,-1.9851,-1.9849,-1.9848,-1.9847,-1.9846,-2.0128,-2.0149,-2.0125,-2.013,-2.0117,-2.0109,-2.0125,-2.0095,-2.0101,-2.0096,-2.0063,-2.0078,-2.0058,-2.0045,-2.0034,-2.0046,-2.0014,-2.0032,-2.0036,-2.0042,-2.0052,-1.99,-2.0044,-2.0044,-2.0043,-2.0043,-2.0042,0,-2.0283,-2.0264,-2.027,-2.0258,-2.0263,-2.0217,-2.0204,-2.0212,-2.0225,-2.0211,-2.0212,-2.0223,-2.0229,-2.0194,-2.0195,-2.0212,-2.019,-2.0214,-2.0212,-2.021,-2.008,-2.0069,-2.0232,-2.0232,-2.0232,-2.0232,-2.0232,-2.0232,-2.0363,-2.0396,-2.0371,-2.0398,-2.0379,-2.0393,-2.039,-2.0383,-2.0371,-2.0386,-2.039,-2.0368,-2.0346,-2.0346,-2.035,-2.0339,-2.0343,-2.0375,-2.0358,-2.0237,-2.0219,-2.0201,-2.0191,-2.0377,-2.0377,-2.0487,-2.0488,-2.0489]},{"header":{"parameterUnit":"m.s-1","parameterCategory":1,"la1":30.2991,"la2":30.254,"lo1":-89.0895,"lo2":-89.0444,"dx":0.0017,"dy":0.0017,"nx":28,"ny":28,"refTime":"2023-01-27T15:00:00:Z","depth":0,"parameterNumber":3,"parameterNumberName":"V-component_of_WINDS"},"data":[0,0,0,0,0,0,0,0,0,0,0,0,0,0,0,0,0,0,0,0,0,0,0,0,0,0,0,0,0,0,0,0,0,0,0,0,0,0,0,0,0,0,0,0,0,0,0,0,0,0,0,0,0,0,0,0,0,0,1.6068,1.6068,0,1.6048,1.6048,1.6047,1.6092,1.6094,1.6095,1.6096,1.607,1.6068,1.6066,0,0,0,0,0,0,0,0,0,0,0,0,0,1.6141,1.6139,1.6068,1.6068,1.6068,1.6048,1.6048,1.6047,1.6092,1.6094,1.6095,1.6097,1.607,1.6068,1.6065,0,0,0,0,0,0,0,0,0,0,0,0,0,1.6114,1.6139,1.6068,1.6088,1.6089,1.6048,1.6048,1.6047,1.6091,1.6094,1.6096,1.6098,1.6071,1.6068,1.6065,1.6002,0,0,1.6056,1.6054,0,0,0,0,0,0,0,0,1.6115,1.6111,1.6085,1.6086,1.6088,1.6075,1.6063,1.6032,1.6091,1.609,1.6096,1.6099,1.6069,1.6066,1.6058,1.6001,1.6,1.6055,1.6053,1.6052,1.6051,0,0,0,0,0,0,0,1.6117,1.6112,1.606,1.6085,1.6086,1.6096,1.6094,1.6058,1.6068,1.6091,1.6094,1.6091,1.607,1.606,1.6057,1.5999,1.6055,1.6053,1.6051,1.6049,1.589,1.5887,0,0,0,0,0,0,1.6117,1.6113,1.6061,1.6059,1.6107,1.6093,1.6091,1.6077,1.6068,1.6069,1.6089,1.6093,1.6065,1.6061,1.6056,1.5982,1.6052,1.6049,1.6047,1.5892,1.5889,1.5886,0,0,0,0,0,0,1.6118,1.6112,1.6061,1.6087,1.6082,1.6089,1.6073,1.6075,1.6065,1.6067,1.6069,1.6078,1.6066,1.6061,1.6016,1.5982,1.6048,1.6045,1.5895,1.5891,1.5888,1.5832,0,0,0,0,0,0,1.612,1.6112,1.6089,1.6086,1.608,1.6022,1.6071,1.6073,1.6061,1.6066,1.6057,1.6057,1.6068,1.602,1.6013,1.5978,1.6043,1.5898,1.5893,1.5889,1.5837,1.5827,1.5819,0,0,0,0,0,1.6123,1.6073,1.6088,1.6081,1.6052,1.602,1.6016,1.6031,1.6058,1.6034,1.6035,1.6058,1.5987,1.6015,1.6007,1.5971,1.59,1.5894,1.5889,1.5841,1.5829,1.5819,0,0,0,0,0,0,1.607,1.6073,1.609,1.6038,1.6029,1.6028,1.5998,1.6018,1.5999,1.6004,1.6021,1.6019,1.597,1.5966,1.5998,1.591,1.5948,1.594,1.5914,1.5902,1.5893,1.5895,1.604,0,0,0,0,0,1.6052,1.6028,1.6032,1.5986,1.5981,1.599,1.5977,1.5989,1.5979,1.5975,1.5973,1.5961,1.5937,1.5919,1.5897,1.5837,1.5835,1.5809,1.58,1.5792,1.5785,1.5753,1.5741,1.5869,1.5869,1.5869,0,0,1.6015,1.6014,1.5997,1.5975,1.5969,1.5942,1.5986,1.5956,1.5935,1.597,1.5927,1.5925,1.5913,1.5861,1.5837,1.5856,1.575,1.5785,1.5779,1.5776,1.5746,1.5734,1.5723,1.5865,1.5866,1.5866,0,0,1.5934,1.5932,1.5893,1.5887,1.5878,1.5886,1.5876,1.5873,1.5873,1.5832,1.5857,1.5832,1.5789,1.578,1.5769,1.5686,1.5705,1.5678,1.5629,1.5597,1.5587,1.5578,1.5547,1.5536,1.5671,1.5671,1.5671,0,1.5889,1.585,1.587,1.5838,1.5827,1.586,1.582,1.5812,1.5796,1.5787,1.5809,1.5756,1.575,1.5696,1.5675,1.5666,1.5655,1.5678,1.5588,1.5579,1.5571,1.5541,1.553,1.5668,1.5668,1.5668,1.5669,0,1.5794,1.5767,1.5737,1.5723,1.5708,1.5672,1.5685,1.5668,1.5682,1.5686,1.5643,1.5637,1.5614,1.5602,1.5615,1.5549,1.5561,1.5585,1.5623,1.5555,1.5528,1.5517,1.5663,1.5664,1.5665,1.5666,0,0,1.5677,1.5676,1.5664,1.5658,1.5652,1.5631,1.5596,1.5575,1.556,1.5548,1.5518,1.5482,1.5504,1.5492,1.5504,1.5476,1.5409,1.5503,1.5503,1.5485,1.5336,1.5317,1.5304,1.5423,1.5421,1.5419,1.5337,0,1.5596,1.5539,1.5556,1.5497,1.5472,1.5503,1.5473,1.5465,1.5468,1.5446,1.5449,1.5423,1.5455,1.5448,1.5422,1.5423,1.5379,1.5429,1.5394,1.5392,1.5394,1.529,1.5269,1.5191,1.5326,1.5324,1.5323,0,1.5494,1.548,1.5419,1.5418,1.5407,1.538,1.5363,1.5342,1.5333,1.5337,1.5325,1.5342,1.5307,1.5346,1.5297,1.533,1.5317,1.5315,1.5313,1.5308,1.5352,1.5281,1.5167,1.5155,1.5307,1.5308,1.5309,0,1.5413,1.5379,1.5338,1.5332,1.533,1.531,1.5307,1.5301,1.5288,1.5272,1.5263,1.5243,1.5231,1.5215,1.5226,1.5254,1.5174,1.5214,1.5175,1.5174,1.5155,1.5155,1.5035,1.5148,1.5149,1.5149,1.5149,0,1.532,1.5281,1.5302,1.5277,1.5234,1.5254,1.521,1.5212,1.5206,1.518,1.5206,1.5181,1.5198,1.5174,1.5182,1.5139,1.5134,1.5135,1.5138,1.5132,1.5132,1.5122,1.5127,1.5146,1.5146,1.5147,1.5148,0,1.5222,1.5235,1.5192,1.5194,1.5194,1.5162,1.5163,1.5139,1.5145,1.5112,1.5105,1.5114,1.5087,1.5097,1.5068,1.5074,1.5018,1.5028,1.5022,1.5024,1.4983,1.4986,1.4851,1.4834,1.4959,1.4958,1.4957,0,1.5161,1.5132,1.5131,1.5117,1.5114,1.509,1.5077,1.5096,1.5081,1.5069,1.5046,1.5022,1.5004,1.4959,1.4962,1.4939,1.4948,1.4903,1.4945,1.494,1.4946,1.4947,1.4944,1.4893,1.4892,1.4891,1.489,0,1.505,1.5059,1.504,1.5024,1.5008,1.4996,1.4985,1.4972,1.499,1.4971,1.4946,1.4932,1.4903,1.4878,1.4859,1.4854,1.4874,1.4877,1.4866,1.4859,1.4856,1.4856,1.4997,1.4879,1.488,1.4881,1.4882,1.4882,1.4968,1.4944,1.494,1.4919,1.4914,1.4903,1.4881,1.4885,1.4865,1.4844,1.4856,1.4825,1.4817,1.4793,1.4787,1.4762,1.4779,1.4764,1.476,1.4755,1.475,1.4862,1.4758,1.4759,1.4759,1.4759,1.4759,0,1.4859,1.4858,1.4838,1.4824,1.4807,1.483,1.482,1.4803,1.4777,1.4769,1.4751,1.4721,1.4697,1.4698,1.4676,1.4656,1.4665,1.4649,1.465,1.4649,1.4736,1.4747,1.4643,1.4643,1.4643,1.4643,1.4643,1.4643,1.4799,1.476,1.4768,1.4725,1.4725,1.4697,1.4689,1.4679,1.4673,1.4639,1.462,1.4622,1.4617,1.4595,1.4574,1.4575,1.4565,1.4546,1.455,1.4631,1.4643,1.4654,1.4664,1.4544,1.4544,1.4465,1.4464,1.4464]}]]